Group_ship,Cruise,JD_GMT,Date_DDMMYYYY,TIME_HH:MM:SS,Lat_dec_degree,Long_dec_degree,xCO2eq_ppm,xCO2a_ppm,Pres_Equi_hPa,Pres_sealevel_hPa,EqTemp_C,SST(TSG)_C,Sal(TSG)_Permil,Water_flow_l/min,Gasflow_IR_ml/min,Temp_IR_C,Pres_IR_hPa,Ship_heading_true_degree,Ship_speed_knot,Wind_dir_rel_degree,Wind_speed_rel_m/s,fCO2W@SST_uatm,Qcflag_water,fCO2a_uatm,Qcflag_air,dfCO2_uatm,Fluoro_ug/l,Wind_speed_true_m/s,Wind_dir_true_degree,Air_temp_C,Oxygen
AOML_Explorer,Ex0738NE,257.975,14092007,23:24:13,40.416,-73.571,393.34,-9.00,1016.91,1014.90,22.44,22.47,31.360,1.535,95.048,31.862,1016.906,98.100,13.900,43.000,14.412,383.57,2,-9.00,9,-9.00,0.28,10.64,171.76,21.67,254.73
AOML_Explorer,Ex0738NE,257.977,14092007,23:26:46,40.414,-73.558,394.82,-9.00,1016.56,1014.70,22.45,22.40,31.379,1.566,95.135,31.866,1016.562,97.900,13.900,49.000,14.926,383.77,2,-9.00,9,-9.00,0.27,11.89,177.51,21.57,254.66
AOML_Explorer,Ex0738NE,257.979,14092007,23:29:19,40.413,-73.546,396.52,-9.00,1016.55,1014.70,22.47,22.42,31.368,1.520,94.969,31.867,1016.550,98.600,13.800,37.000,13.897,385.27,2,-9.00,9,-9.00,0.27,9.57,166.03,21.58,254.92
AOML_Explorer,Ex0738NE,257.980,14092007,23:31:52,40.412,-73.533,397.27,-9.00,1016.61,1014.80,22.43,22.42,31.365,1.553,95.319,31.867,1016.613,98.900,13.800,45.000,14.412,386.73,2,-9.00,9,-9.00,0.27,10.91,174.25,21.58,254.27
AOML_Explorer,Ex0738NE,257.982,14092007,23:34:25,40.410,-73.520,397.66,-9.00,1016.62,1014.80,22.44,22.41,31.379,1.528,95.115,31.865,1016.616,98.500,13.800,40.000,13.382,386.90,2,-9.00,9,-9.00,0.29,9.41,171.04,21.55,254.15
AOML_Explorer,Ex0738NE,257.984,14092007,23:36:58,40.409,-73.508,398.35,-9.00,1016.62,1014.70,22.44,22.40,31.393,1.529,95.145,31.864,1016.621,98.700,13.800,38.000,13.382,387.26,2,-9.00,9,-9.00,0.28,9.17,168.37,21.51,254.03
AOML_Explorer,Ex0738NE,257.986,14092007,23:39:31,40.407,-73.495,398.58,-9.00,1016.50,1014.50,22.43,22.36,31.434,1.537,95.290,31.861,1016.503,98.700,13.700,27.000,11.323,386.92,2,-9.00,9,-9.00,0.25,6.08,159.94,21.48,254.44
AOML_Explorer,Ex0738NE,257.988,14092007,23:42:04,40.406,-73.483,399.30,-9.00,1016.70,1014.90,22.42,22.32,31.486,1.535,95.265,31.861,1016.697,99.500,13.800,43.000,13.897,387.31,2,-9.00,9,-9.00,0.24,10.26,174.48,21.46,254.24
AOML_Explorer,Ex0738NE,257.989,14092007,23:44:37,40.403,-73.470,401.28,-9.00,1016.60,1014.80,22.39,22.36,31.585,1.536,94.946,31.862,1016.597,104.600,13.700,38.000,13.382,390.40,2,-9.00,9,-9.00,0.20,9.20,173.57,21.48,251.44
AOML_Explorer,Ex0738NE,257.991,14092007,23:47:10,40.401,-73.458,404.12,-9.00,1016.76,1015.00,22.37,22.36,31.593,1.528,95.045,31.862,1016.765,104.300,13.700,36.000,13.897,393.60,2,-9.00,9,-9.00,0.17,9.43,169.63,21.49,249.65
AOML_Explorer,Ex0738NE,257.993,14092007,23:49:43,40.399,-73.446,404.19,-9.00,1016.79,1015.00,22.39,22.33,31.578,1.516,95.839,31.861,1016.790,104.700,13.900,37.000,13.382,392.76,2,-9.00,9,-9.00,0.17,9.03,172.03,21.47,248.96
AOML_Explorer,Ex0738NE,257.995,14092007,23:52:16,40.396,-73.434,400.93,-9.00,1016.80,1015.00,22.39,22.31,31.561,1.544,94.073,31.862,1016.804,104.300,13.800,37.000,12.868,389.23,2,-9.00,9,-9.00,0.17,8.58,173.48,21.48,248.30
AOML_Explorer,Ex0738NE,257.996,14092007,23:54:49,40.394,-73.421,398.22,-9.00,1016.83,1015.10,22.37,22.33,31.575,1.555,95.505,31.860,1016.829,104.400,13.800,36.000,13.382,387.38,2,-9.00,9,-9.00,0.17,8.93,171.01,21.47,247.48
AOML_Explorer,Ex0738NE,257.998,14092007,23:57:22,40.391,-73.409,395.69,-9.00,1016.86,1014.90,22.35,22.32,31.557,1.528,95.464,31.858,1016.859,104.600,13.900,35.000,12.353,384.96,2,-9.00,9,-9.00,0.18,7.90,173.26,21.5,247.20
AOML_Explorer,Ex0738NE,258.000,14092007,23:59:55,40.389,-73.397,393.74,-9.00,1016.76,1014.90,22.36,22.32,31.541,1.560,92.136,31.861,1016.765,104.300,13.900,37.000,12.868,382.92,2,-9.00,9,-9.00,0.18,8.57,173.88,21.53,247.02
AOML_Explorer,Ex0738NE,258.015,15092007,0:21:40,40.375,-73.291,395.55,-9.00,1016.71,1014.60,22.25,22.15,31.507,1.529,95.219,31.939,1016.711,98.600,13.500,50.000,13.897,383.85,2,-9.00,9,-9.00,0.19,11.06,179.16,21.6,252.68
AOML_Explorer,Ex0738NE,258.017,15092007,0:24:13,40.373,-73.279,395.75,-9.00,1016.66,1014.80,22.23,22.10,31.519,1.534,94.756,31.948,1016.663,98.800,13.500,44.000,13.382,383.55,2,-9.00,9,-9.00,0.17,9.87,173.53,21.63,254.73
AOML_Explorer,Ex0738NE,258.019,15092007,0:26:46,40.372,-73.267,394.79,-9.00,1016.78,1014.80,22.21,22.03,31.533,1.522,95.481,31.955,1016.777,98.200,13.500,40.000,13.382,381.74,2,-9.00,9,-9.00,0.19,9.43,168.03,21.63,257.42
AOML_Explorer,Ex0738NE,258.020,15092007,0:29:19,40.371,-73.254,393.02,-9.00,1016.60,1014.70,22.17,21.97,31.523,1.520,95.848,31.957,1016.600,92.700,13.400,44.000,13.382,379.75,2,-9.00,9,-9.00,0.22,9.83,166.79,21.6,261.89
AOML_Explorer,Ex0738NE,258.022,15092007,0:31:52,40.371,-73.242,389.80,-9.00,1016.80,1014.70,22.11,21.90,31.520,1.534,94.985,31.962,1016.803,89.100,13.400,49.000,12.353,376.58,2,-9.00,9,-9.00,0.22,9.66,173.29,21.61,264.32
AOML_Explorer,Ex0738NE,258.024,15092007,0:34:25,40.371,-73.230,384.03,-9.00,1016.69,1014.70,22.04,21.90,31.486,1.539,95.385,31.962,1016.695,89.600,13.400,52.000,12.868,372.11,2,-9.00,9,-9.00,0.21,10.43,175.35,21.6,253.69
AOML_Explorer,Ex0738NE,258.026,15092007,0:36:58,40.371,-73.217,383.32,-9.00,1016.81,1014.70,21.99,21.87,31.475,1.522,95.061,31.967,1016.812,89.400,13.500,45.000,12.868,371.74,2,-9.00,9,-9.00,0.20,9.58,167.62,21.64,248.55
AOML_Explorer,Ex0738NE,258.027,15092007,0:39:31,40.371,-73.205,395.73,-9.00,1016.75,1014.80,21.98,21.85,31.488,1.557,97.225,31.969,1016.754,88.800,13.500,54.000,13.382,383.67,2,-9.00,9,-9.00,0.22,11.12,175.83,21.6,246.39
AOML_Explorer,Ex0738NE,258.029,15092007,0:42:04,40.372,-73.193,405.53,-9.00,1016.88,1014.70,21.96,21.79,31.490,1.570,95.028,31.970,1016.881,89.100,13.500,51.000,12.868,392.67,2,-9.00,9,-9.00,0.20,10.34,174.05,21.57,243.46
AOML_Explorer,Ex0738NE,258.031,15092007,0:44:37,40.372,-73.180,412.49,-9.00,1016.73,1014.60,21.94,21.66,31.533,1.558,95.429,31.977,1016.727,88.400,13.500,50.000,13.897,397.50,2,-9.00,9,-9.00,0.21,11.08,169.62,21.59,242.13
AOML_Explorer,Ex0738NE,258.033,15092007,0:47:10,40.372,-73.168,418.23,-9.00,1016.61,1014.60,21.89,21.67,31.494,1.541,95.746,31.978,1016.611,88.300,13.500,47.000,13.897,403.90,2,-9.00,9,-9.00,0.21,10.75,166.59,21.54,241.54
AOML_Explorer,Ex0738NE,258.035,15092007,0:49:43,40.372,-73.155,420.76,-9.00,1016.59,1014.60,21.79,21.78,31.469,1.545,93.245,31.984,1016.594,88.000,13.500,52.000,13.382,409.96,2,-9.00,9,-9.00,0.18,10.90,173.02,21.6,242.61
AOML_Explorer,Ex0738NE,258.036,15092007,0:52:16,40.373,-73.143,417.37,-9.00,1016.84,1014.50,21.78,21.81,31.455,1.551,96.057,31.991,1016.839,87.300,13.500,49.000,12.868,407.44,2,-9.00,9,-9.00,0.16,10.09,170.44,21.53,244.10
AOML_Explorer,Ex0738NE,258.038,15092007,0:54:49,40.373,-73.131,410.99,-9.00,1016.73,1014.60,21.87,21.83,31.432,1.509,96.958,31.997,1016.731,87.500,13.500,47.000,13.382,399.97,2,-9.00,9,-9.00,0.15,10.29,166.95,21.56,244.27
AOML_Explorer,Ex0738NE,258.040,15092007,0:57:22,40.374,-73.118,402.22,-9.00,1016.55,1014.50,21.90,21.82,31.418,1.545,95.058,32.002,1016.546,87.700,13.500,42.000,13.382,390.78,2,-9.00,9,-9.00,0.14,9.69,160.90,21.53,244.28
AOML_Explorer,Ex0738NE,258.042,15092007,0:59:55,40.374,-73.106,394.61,-9.00,1016.37,1014.50,21.91,21.82,31.409,1.535,95.306,32.009,1016.372,88.000,13.600,42.000,13.382,383.03,2,-9.00,9,-9.00,0.13,9.62,160.73,21.52,244.05
AOML_Explorer,Ex0738NE,258.057,15092007,1:21:40,40.376,-73.001,385.87,-9.00,1016.35,1014.40,21.87,21.76,31.316,1.530,95.065,32.117,1016.349,89.100,13.200,50.000,13.897,374.26,2,-9.00,9,-9.00,0.09,11.08,169.86,21.41,243.20
AOML_Explorer,Ex0738NE,258.058,15092007,1:24:13,40.376,-72.989,384.38,-9.00,1016.31,1014.40,21.85,21.80,31.285,1.538,95.060,32.122,1016.307,89.000,13.300,48.000,13.897,373.70,2,-9.00,9,-9.00,0.10,10.88,167.82,21.5,242.87
AOML_Explorer,Ex0738NE,258.060,15092007,1:26:46,40.376,-72.976,382.99,-9.00,1016.31,1014.40,21.86,21.81,31.244,1.519,95.032,32.129,1016.312,89.700,13.300,49.000,13.382,372.49,2,-9.00,9,-9.00,0.10,10.57,171.18,21.4,242.76
AOML_Explorer,Ex0738NE,258.062,15092007,1:29:19,40.376,-72.964,382.25,-9.00,1016.40,1014.30,21.88,21.82,31.206,1.557,95.337,32.130,1016.401,89.500,13.300,48.000,13.897,371.46,2,-9.00,9,-9.00,0.09,10.89,168.62,21.43,242.16
AOML_Explorer,Ex0738NE,258.064,15092007,1:31:52,40.376,-72.952,381.01,-9.00,1016.21,1014.20,21.90,21.80,31.175,1.528,95.180,32.134,1016.213,89.600,13.300,48.000,13.897,369.64,2,-9.00,9,-9.00,0.11,10.86,168.50,21.4,241.26
AOML_Explorer,Ex0738NE,258.066,15092007,1:34:25,40.376,-72.940,378.94,-9.00,1016.13,1014.10,21.90,21.77,31.157,1.557,95.604,32.137,1016.134,89.600,13.300,44.000,13.897,367.10,2,-9.00,9,-9.00,0.12,10.39,163.42,21.34,240.54
AOML_Explorer,Ex0738NE,258.067,15092007,1:36:58,40.376,-72.927,376.85,-9.00,1016.09,1014.10,21.89,21.77,31.160,1.549,96.050,32.140,1016.092,89.400,13.200,46.000,13.382,365.34,2,-9.00,9,-9.00,0.11,10.17,166.77,21.24,239.07
AOML_Explorer,Ex0738NE,258.069,15092007,1:39:31,40.376,-72.915,375.14,-9.00,1016.07,1014.10,21.88,21.83,31.187,1.565,95.285,32.142,1016.068,89.600,13.200,39.000,11.838,364.67,2,-9.00,9,-9.00,0.12,8.06,163.93,21.18,238.41
AOML_Explorer,Ex0738NE,258.071,15092007,1:42:04,40.376,-72.903,375.68,-9.00,1015.92,1014.00,21.87,21.77,31.192,1.545,95.137,32.148,1015.919,90.000,13.200,41.000,11.838,364.32,2,-9.00,9,-9.00,0.11,8.24,166.17,21.15,239.13
AOML_Explorer,Ex0738NE,258.073,15092007,1:44:37,40.376,-72.891,377.20,-9.00,1015.97,1014.00,21.91,21.67,31.114,1.526,94.962,32.150,1015.969,90.000,13.200,43.000,10.809,363.79,2,-9.00,9,-9.00,0.12,7.61,172.61,21.14,239.28
AOML_Explorer,Ex0738NE,258.074,15092007,1:47:10,40.376,-72.879,378.41,-9.00,1016.11,1014.00,21.86,21.68,31.073,1.509,94.852,32.152,1016.113,90.100,13.300,35.000,11.838,366.01,2,-9.00,9,-9.00,0.11,7.53,158.68,21.13,239.19
AOML_Explorer,Ex0738NE,258.076,15092007,1:49:43,40.376,-72.867,376.79,-9.00,1016.13,1014.00,21.79,21.82,31.131,1.530,94.995,32.156,1016.133,93.400,13.200,38.000,11.323,367.64,2,-9.00,9,-9.00,0.11,7.51,168.73,21.11,240.09
AOML_Explorer,Ex0738NE,258.078,15092007,1:52:16,40.376,-72.854,374.63,-9.00,1015.89,1014.00,21.80,21.85,31.173,1.569,94.858,32.160,1015.892,94.600,13.300,40.000,12.353,365.64,2,-9.00,9,-9.00,0.11,8.54,168.16,21.11,241.11
AOML_Explorer,Ex0738NE,258.080,15092007,1:54:49,40.374,-72.842,373.35,-9.00,1015.93,1013.90,21.90,21.82,31.170,1.557,94.778,32.166,1015.931,96.100,13.200,37.000,11.838,362.53,2,-9.00,9,-9.00,0.11,7.73,166.81,21.1,241.82
AOML_Explorer,Ex0738NE,258.082,15092007,1:57:22,40.374,-72.830,373.56,-9.00,1015.81,1013.80,21.93,21.75,31.147,1.564,94.868,32.170,1015.815,96.100,13.400,32.000,11.323,361.18,2,-9.00,9,-9.00,0.11,6.70,162.70,21.03,241.85
AOML_Explorer,Ex0738NE,258.083,15092007,1:59:55,40.372,-72.818,372.80,-9.00,1015.76,1013.80,21.91,21.72,31.175,1.552,94.669,32.174,1015.756,96.300,13.900,33.000,11.323,360.33,2,-9.00,9,-9.00,0.12,6.68,166.03,21.04,241.73
AOML_Explorer,Ex0738NE,258.098,15092007,2:21:40,40.365,-72.711,363.26,-9.00,1015.68,1013.60,21.61,21.55,31.071,1.526,95.125,32.266,1015.676,96.200,13.600,30.000,10.294,353.10,2,-9.00,9,-9.00,0.11,5.47,164.50,21.05,240.19
AOML_Explorer,Ex0738NE,258.100,15092007,2:24:13,40.363,-72.699,361.65,-9.00,1015.70,1013.60,21.64,21.59,31.074,1.501,94.966,32.271,1015.700,96.200,13.600,29.000,10.294,351.62,2,-9.00,9,-9.00,0.11,5.42,163.80,21.04,240.35
AOML_Explorer,Ex0738NE,258.102,15092007,2:26:46,40.363,-72.686,360.79,-9.00,1015.69,1013.50,21.66,21.58,31.080,1.532,94.634,32.274,1015.687,96.600,13.500,36.000,10.809,350.25,2,-9.00,9,-9.00,0.12,6.61,170.39,21.01,240.56
AOML_Explorer,Ex0738NE,258.104,15092007,2:29:19,40.362,-72.674,360.65,-9.00,1015.85,1013.60,21.70,21.57,31.082,1.520,94.957,32.282,1015.849,96.000,13.600,33.000,10.294,349.49,2,-9.00,9,-9.00,0.12,5.89,169.45,20.98,240.73
AOML_Explorer,Ex0738NE,258.105,15092007,2:31:52,40.361,-72.661,360.28,-9.00,1015.78,1013.50,21.69,21.55,31.092,1.542,94.996,32.281,1015.785,96.500,13.600,21.000,10.809,348.97,2,-9.00,9,-9.00,0.12,4.97,146.97,21.01,240.98
AOML_Explorer,Ex0738NE,258.107,15092007,2:34:25,40.360,-72.649,360.78,-9.00,1015.58,1013.30,21.68,21.51,31.114,1.502,94.896,32.284,1015.583,96.300,13.700,31.000,9.779,348.93,2,-9.00,9,-9.00,0.13,5.21,169.86,20.9,241.58
AOML_Explorer,Ex0738NE,258.109,15092007,2:36:58,40.359,-72.637,362.09,-9.00,1015.57,1013.40,21.67,21.46,31.134,1.512,94.798,32.286,1015.570,96.800,13.600,16.000,10.294,349.66,2,-9.00,9,-9.00,0.16,4.01,139.35,20.91,242.61
AOML_Explorer,Ex0738NE,258.111,15092007,2:39:31,40.357,-72.624,364.31,-9.00,1015.56,1013.30,21.63,21.41,31.153,1.507,94.686,32.288,1015.563,96.600,13.600,22.000,9.265,351.53,2,-9.00,9,-9.00,0.15,3.77,160.85,20.95,242.81
AOML_Explorer,Ex0738NE,258.113,15092007,2:42:04,40.356,-72.611,367.87,-9.00,1015.66,1013.40,21.59,21.38,31.161,1.496,94.708,32.289,1015.658,96.700,13.600,24.000,9.265,355.35,2,-9.00,9,-9.00,0.15,3.98,164.42,20.92,242.62
AOML_Explorer,Ex0738NE,258.114,15092007,2:44:37,40.355,-72.599,371.29,-9.00,1015.77,1013.50,21.55,21.33,31.168,1.527,94.601,32.293,1015.768,96.700,13.600,16.000,9.265,358.47,2,-9.00,9,-9.00,0.15,3.15,148.83,20.92,242.80
AOML_Explorer,Ex0738NE,258.116,15092007,2:47:10,40.354,-72.586,374.44,-9.00,1015.84,1013.60,21.53,21.19,31.201,1.537,94.728,32.296,1015.839,97.900,13.600,19.000,9.265,359.97,2,-9.00,9,-9.00,0.16,3.46,156.64,20.85,242.97
AOML_Explorer,Ex0738NE,258.118,15092007,2:49:43,40.353,-72.574,375.56,-9.00,1015.78,1013.50,21.48,21.03,31.299,1.503,94.906,32.300,1015.783,101.600,13.600,17.000,8.750,359.31,2,-9.00,9,-9.00,0.19,2.93,163.42,21.02,243.73
AOML_Explorer,Ex0738NE,258.120,15092007,2:52:16,40.351,-72.562,376.95,-9.00,1015.80,1013.50,21.35,20.92,31.429,1.515,96.645,32.305,1015.796,103.000,13.600,13.000,9.265,360.91,2,-9.00,9,-9.00,0.29,2.89,147.03,20.97,246.60
AOML_Explorer,Ex0738NE,258.121,15092007,2:54:49,40.348,-72.549,384.53,-9.00,1015.75,1013.40,21.22,20.89,31.431,1.535,94.773,32.308,1015.751,102.600,13.600,13.000,9.265,369.74,2,-9.00,9,-9.00,0.28,2.88,147.68,20.89,248.50
AOML_Explorer,Ex0738NE,258.123,15092007,2:57:22,40.346,-72.537,396.10,-9.00,1015.76,1013.50,21.12,20.97,31.466,1.517,94.753,32.313,1015.764,102.000,13.700,19.000,9.779,383.71,2,-9.00,9,-9.00,0.24,3.87,157.37,20.79,249.53
AOML_Explorer,Ex0738NE,258.125,15092007,2:59:55,40.344,-72.525,405.11,-9.00,1015.77,1013.50,21.08,21.02,31.419,1.497,94.897,32.315,1015.770,102.000,13.700,25.000,8.750,393.95,2,-9.00,9,-9.00,0.19,3.86,179.55,20.88,248.15
AOML_Explorer,Ex0738NE,258.140,15092007,3:21:40,40.347,-72.417,418.77,-9.00,1015.49,1013.10,21.15,21.01,31.795,1.489,93.313,32.399,1015.487,84.200,13.100,21.000,8.750,405.72,2,-9.00,9,-9.00,0.17,3.49,150.51,21.06,252.96
AOML_Explorer,Ex0738NE,258.142,15092007,3:24:13,40.348,-72.405,422.73,-9.00,1015.44,1013.10,21.12,20.97,31.821,1.484,93.318,32.400,1015.444,83.500,13.100,25.000,8.235,409.58,2,-9.00,9,-9.00,0.18,3.70,163.61,21.12,255.02
AOML_Explorer,Ex0738NE,258.144,15092007,3:26:46,40.349,-72.393,432.52,-9.00,1015.40,1013.00,21.16,21.01,31.776,1.502,92.956,32.402,1015.400,84.100,13.200,22.000,7.721,419.01,2,-9.00,9,-9.00,0.20,3.02,168.02,21.23,256.10
AOML_Explorer,Ex0738NE,258.145,15092007,3:29:19,40.350,-72.381,442.97,-9.00,1015.37,1012.90,21.15,20.96,31.818,1.530,91.030,32.406,1015.370,81.600,13.300,24.000,7.721,428.39,2,-9.00,9,-9.00,0.18,3.22,168.77,21.2,256.61
AOML_Explorer,Ex0738NE,258.147,15092007,3:31:52,40.351,-72.369,447.51,-9.00,1015.27,1012.80,21.17,20.95,31.846,1.514,93.011,32.406,1015.266,81.900,13.300,23.000,7.206,432.19,2,-9.00,9,-9.00,0.16,2.96,177.62,21.27,256.78
AOML_Explorer,Ex0738NE,258.149,15092007,3:34:25,40.352,-72.356,449.58,-9.00,1015.13,1012.70,21.14,20.99,31.879,1.518,92.977,32.405,1015.128,82.800,13.500,17.000,7.721,435.42,2,-9.00,9,-9.00,0.15,2.32,162.25,21.24,256.59
AOML_Explorer,Ex0738NE,258.151,15092007,3:36:58,40.353,-72.344,450.55,-9.00,1015.05,1012.60,21.13,20.95,31.946,1.556,93.132,32.405,1015.053,82.400,13.600,13.000,7.721,435.78,2,-9.00,9,-9.00,0.15,1.80,156.67,21.34,256.76
AOML_Explorer,Ex0738NE,258.152,15092007,3:39:31,40.355,-72.331,451.14,-9.00,1014.86,1012.40,21.14,21.11,31.987,1.567,93.021,32.402,1014.859,82.700,13.600,8.000,7.206,438.94,2,-9.00,9,-9.00,0.11,1.00,166.09,21.27,256.50
AOML_Explorer,Ex0738NE,258.154,15092007,3:42:04,40.356,-72.319,450.40,-9.00,1014.77,1012.30,21.12,21.43,32.120,1.539,92.816,32.407,1014.766,81.600,13.600,7.000,7.721,444.10,2,-9.00,9,-9.00,0.10,1.13,137.48,21.21,255.70
AOML_Explorer,Ex0738NE,258.156,15092007,3:44:37,40.357,-72.306,448.73,-9.00,1014.57,1012.10,21.25,21.39,32.158,1.556,93.395,32.407,1014.566,82.600,13.600,359.000,7.721,439.41,2,-9.00,9,-9.00,0.10,0.72,68.95,21.14,255.02
AOML_Explorer,Ex0738NE,258.158,15092007,3:47:10,40.359,-72.294,443.67,-9.00,1014.49,1012.10,21.49,21.34,32.155,1.551,93.399,32.407,1014.489,82.100,13.500,0.000,7.721,429.04,2,-9.00,9,-9.00,0.11,0.78,80.81,21.13,254.80
AOML_Explorer,Ex0738NE,258.160,15092007,3:49:43,40.360,-72.282,439.47,-9.00,1014.51,1012.00,21.50,21.37,32.186,1.529,93.271,32.408,1014.509,82.400,13.400,355.000,7.206,425.29,2,-9.00,9,-9.00,0.11,0.74,11.72,21.16,254.23
AOML_Explorer,Ex0738NE,258.161,15092007,3:52:16,40.361,-72.269,437.27,-9.00,1014.53,1012.10,21.47,21.31,32.183,1.541,93.323,32.408,1014.535,82.300,13.400,353.000,7.206,422.78,2,-9.00,9,-9.00,0.11,1.00,6.09,21.05,254.61
AOML_Explorer,Ex0738NE,258.163,15092007,3:54:49,40.362,-72.257,435.43,-9.00,1014.59,1012.10,21.49,21.34,32.187,1.525,93.348,32.411,1014.590,82.000,13.400,357.000,7.721,421.27,2,-9.00,9,-9.00,0.11,0.93,53.18,21.09,254.30
AOML_Explorer,Ex0738NE,258.165,15092007,3:57:22,40.364,-72.245,433.81,-9.00,1014.58,1012.20,21.46,21.38,32.210,1.531,93.474,32.409,1014.584,82.300,13.400,4.000,8.235,420.82,2,-9.00,9,-9.00,0.10,1.41,102.19,20.98,254.77
AOML_Explorer,Ex0738NE,258.167,15092007,3:59:55,40.365,-72.232,432.87,-9.00,1014.52,1012.10,21.47,21.35,32.236,1.552,93.508,32.410,1014.520,82.300,13.300,350.000,8.750,419.18,2,-9.00,9,-9.00,0.09,2.36,39.67,20.97,254.83
AOML_Explorer,Ex0738NE,258.182,15092007,4:21:40,40.374,-72.151,422.58,-9.00,1014.52,1012.10,21.58,21.51,32.380,1.530,94.441,32.480,1014.523,0.000,0.000,359.000,8.235,409.94,2,-9.00,9,-9.00,0.08,1.36,72.48,20.84,253.76
AOML_Explorer,Ex0738NE,258.183,15092007,4:24:13,40.374,-72.151,421.91,-9.00,1014.52,1012.10,21.59,21.43,32.392,1.515,94.237,32.484,1014.523,0.000,0.000,0.000,8.750,407.84,2,-9.00,9,-9.00,0.08,1.85,79.28,20.86,253.71
AOML_Explorer,Ex0738NE,258.185,15092007,4:26:46,40.374,-72.151,421.31,-9.00,1014.51,1012.10,21.62,21.42,32.391,1.518,94.025,32.484,1014.506,0.000,0.000,1.000,8.750,406.54,2,-9.00,9,-9.00,0.08,1.85,82.88,20.93,254.14
AOML_Explorer,Ex0738NE,258.187,15092007,4:29:19,40.374,-72.151,421.07,-9.00,1014.43,1012.00,21.57,21.40,32.407,1.566,94.239,32.487,1014.426,0.000,0.000,359.000,8.235,406.77,2,-9.00,9,-9.00,0.08,1.35,70.86,20.73,254.11
AOML_Explorer,Ex0738NE,258.189,15092007,4:31:52,40.374,-72.151,420.47,-9.00,1014.34,1011.90,21.55,21.39,32.430,1.520,94.120,32.482,1014.340,0.000,0.000,1.000,8.750,406.53,2,-9.00,9,-9.00,0.09,1.84,83.16,20.83,254.26
AOML_Explorer,Ex0738NE,258.191,15092007,4:34:25,40.374,-72.151,419.99,-9.00,1014.25,1011.80,21.53,21.42,32.439,1.527,94.036,32.482,1014.250,0.000,0.000,357.000,8.750,406.70,2,-9.00,9,-9.00,0.08,1.91,64.59,20.8,254.31
AOML_Explorer,Ex0738NE,258.192,15092007,4:36:58,40.374,-72.151,419.45,-9.00,1014.18,1011.90,21.53,21.46,32.424,1.534,94.093,32.482,1014.181,0.000,0.000,356.000,8.750,406.96,2,-9.00,9,-9.00,0.08,1.95,60.75,20.7,254.46
AOML_Explorer,Ex0738NE,258.194,15092007,4:39:31,40.374,-72.151,418.78,-9.00,1014.14,1011.80,21.55,21.46,32.415,1.516,94.040,32.478,1014.145,0.000,0.000,356.000,9.265,405.95,2,-9.00,9,-9.00,0.08,2.44,64.13,20.81,254.25
AOML_Explorer,Ex0738NE,258.196,15092007,4:42:04,40.374,-72.151,418.62,-9.00,1014.05,1011.80,21.58,21.45,32.420,1.535,94.121,32.478,1014.055,0.000,0.000,356.000,9.265,404.94,2,-9.00,9,-9.00,0.07,2.45,63.73,20.69,253.98
AOML_Explorer,Ex0738NE,258.198,15092007,4:44:37,40.374,-72.151,418.90,-9.00,1014.02,1011.70,21.58,21.38,32.450,1.512,94.092,32.473,1014.018,0.000,0.000,355.000,9.779,403.98,2,-9.00,9,-9.00,0.09,3.00,61.72,20.68,254.36
AOML_Explorer,Ex0738NE,258.199,15092007,4:47:10,40.374,-72.151,418.56,-9.00,1014.06,1011.70,21.57,21.37,32.471,1.541,94.141,32.473,1014.059,0.000,0.000,1.000,9.265,403.71,2,-9.00,9,-9.00,0.09,2.36,72.20,20.87,254.64
AOML_Explorer,Ex0738NE,258.201,15092007,4:49:43,40.374,-72.151,418.22,-9.00,1014.01,1011.70,21.52,21.14,32.503,1.543,94.355,32.476,1014.009,0.000,0.000,0.000,9.265,400.40,2,-9.00,9,-9.00,0.11,2.34,62.20,20.98,255.26
AOML_Explorer,Ex0738NE,258.203,15092007,4:52:16,40.374,-72.151,417.78,-9.00,1013.94,1011.60,21.50,21.03,32.318,1.534,94.200,32.477,1013.936,0.000,0.000,5.000,9.265,398.51,2,-9.00,9,-9.00,0.12,2.45,72.74,21.05,255.48
AOML_Explorer,Ex0738NE,258.205,15092007,4:54:49,40.374,-72.151,419.37,-9.00,1013.80,1011.50,21.33,20.98,32.251,1.541,94.259,32.478,1013.801,0.000,0.000,3.000,8.750,402.16,2,-9.00,9,-9.00,0.12,1.88,59.52,21.04,255.10
AOML_Explorer,Ex0738NE,258.207,15092007,4:57:22,40.412,-71.965,425.45,-9.00,1013.48,1011.40,21.22,21.00,32.227,1.524,94.362,32.476,1013.484,41.200,13.500,5.000,8.750,410.08,2,-9.00,9,-9.00,0.12,1.97,61.38,21.1,255.13
AOML_Explorer,Ex0738NE,258.208,15092007,4:59:55,40.419,-71.957,430.44,-9.00,1013.46,1011.40,21.17,21.00,32.212,1.546,94.326,32.476,1013.459,34.200,13.600,4.000,8.750,415.64,2,-9.00,9,-9.00,0.13,1.89,49.27,21.16,255.38
AOML_Explorer,Ex0738NE,258.223,15092007,5:21:40,40.500,-71.921,436.23,-9.00,1013.35,1011.30,20.98,20.82,32.251,1.555,93.655,32.514,1013.348,17.600,14.100,10.000,8.235,421.62,2,-9.00,9,-9.00,0.16,1.67,73.30,20.99,257.45
AOML_Explorer,Ex0738NE,258.225,15092007,5:24:13,40.509,-71.917,436.25,-9.00,1013.42,1011.40,20.98,20.87,32.326,1.581,93.938,32.513,1013.416,17.600,14.000,8.000,7.721,422.62,2,-9.00,9,-9.00,0.14,1.14,81.50,20.93,257.02
AOML_Explorer,Ex0738NE,258.227,15092007,5:26:46,40.519,-71.913,435.28,-9.00,1013.49,1011.40,21.00,20.92,32.402,1.580,94.018,32.511,1013.492,18.100,14.100,9.000,7.721,422.09,2,-9.00,9,-9.00,0.14,1.25,86.15,20.9,256.63
AOML_Explorer,Ex0738NE,258.229,15092007,5:29:19,40.528,-71.909,433.43,-9.00,1013.57,1011.40,21.05,20.94,32.427,1.541,93.811,32.512,1013.572,17.300,14.100,9.000,7.721,419.89,2,-9.00,9,-9.00,0.13,1.25,86.60,20.95,256.26
AOML_Explorer,Ex0738NE,258.230,15092007,5:31:52,40.538,-71.905,431.13,-9.00,1013.62,1011.50,21.08,21.00,32.445,1.568,93.703,32.509,1013.625,17.600,14.100,7.000,7.721,417.98,2,-9.00,9,-9.00,0.12,1.04,80.54,20.93,256.05
AOML_Explorer,Ex0738NE,258.232,15092007,5:34:25,40.547,-71.902,429.04,-9.00,1013.62,1011.40,21.11,21.02,32.482,1.574,92.331,32.507,1013.615,17.700,14.000,7.000,7.721,415.94,2,-9.00,9,-9.00,0.11,1.02,79.02,20.92,255.59
AOML_Explorer,Ex0738NE,258.234,15092007,5:36:58,40.557,-71.898,427.64,-9.00,1013.54,1011.50,21.15,21.07,32.511,1.588,94.002,32.504,1013.545,17.700,14.000,6.000,7.721,414.59,2,-9.00,9,-9.00,0.11,0.91,75.67,20.98,254.95
AOML_Explorer,Ex0738NE,258.236,15092007,5:39:31,40.566,-71.894,426.58,-9.00,1013.52,1011.40,21.17,21.19,32.580,1.552,93.850,32.500,1013.518,17.400,14.000,0.000,7.721,415.17,2,-9.00,9,-9.00,0.10,0.53,13.14,20.86,253.77
AOML_Explorer,Ex0738NE,258.238,15092007,5:42:04,40.575,-71.890,425.74,-9.00,1013.48,1011.30,21.22,21.27,32.759,1.595,93.876,32.496,1013.478,17.500,14.100,356.000,7.721,414.98,2,-9.00,9,-9.00,0.08,0.75,328.29,21.03,252.16
AOML_Explorer,Ex0738NE,258.239,15092007,5:44:37,40.585,-71.886,424.55,-9.00,1013.43,1011.30,21.32,21.30,32.875,1.557,93.955,32.491,1013.426,17.500,14.000,355.000,8.235,412.53,2,-9.00,9,-9.00,0.07,1.23,340.33,21.01,250.65
AOML_Explorer,Ex0738NE,258.241,15092007,5:47:10,40.594,-71.882,422.49,-9.00,1013.45,1011.20,21.39,21.26,32.931,1.540,94.180,32.494,1013.446,17.600,13.900,355.000,7.206,408.70,2,-9.00,9,-9.00,0.08,0.67,293.35,21.15,250.38